Погода в Звенигово

Россия / Республика Марий Эл     55°58′20″N   48°00′55″E
темп.,
°C
ветер,
м/с
пор.,
м/с
влажн.,
%
обл.,
%
осадки,
мм/ч
давл.,
гПа
погр.,
м
22 апреля, чт
чт2200:00+3ююв71493100 0.1 1019603
03:00+3ю71394100 0.1 1019414
06:00+4ю61193100 0.1 1021360
09:00+6ю5985100 0.1 1022374
12:00+9ю6876100 0.0 1021670
15:00+11ю6967100 0.8 1021853
18:00+10ю597517 2.1 1021303
21:00+6ююз22885 2.6 102215
23 апреля, пт
пт2300:00+5ю11895 0.0 102310
03:00+4ююз11905 0.0 102410
06:00+5ю22865 0.0 102457
09:00+11ю23640 0.0 1024596
12:00+14ю23495 0.0 10231484
15:00+15ююв344589 0.0 10221924
18:00+13юв3451100 0.0 102150
21:00+10юв387698 0.1 1021214
24 апреля, сб
сб2400:00+7вюв3482100 0.0 102078
03:00+6в3885100 0.0 1018163
06:00+7в41086100 0.0 1017403
09:00+9вюв6981100 0.0 1015731
12:00+7вюв5785100 0.2 1014967
15:00+7вюв4788100 0.4 1012768
18:00+7вюв4891100 0.1 1011608
21:00+6вюв51092100 0.1 1009474
25 апреля, вс
вс2500:00+5вюв51094100 0.1 1006416
03:00+5юз3697100 5.4 1004625
06:00+3з71396100 1.3 1005916
09:00+7з8137031 1.3 10071397
12:00+10з912475 0.0 10082150
15:00+11з8124275 0.0 10102830
18:00+8з6105738 0.0 1011700
21:00+4юз410785 0.0 1013233
26 апреля, пн
пн2600:00+4юз4108079 0.0 1013241
03:00+2зюз512821 0.0 1014320
06:00+3зюз511780 0.0 1015440
09:00+7зюз79575 0.0 10161337
12:00+9зюз6945100 0.0 10162239
15:00+10юз784788 0.0 10151928
18:00+8юз586681 0.4 1014638
21:00+5ююз368576 0.4 1014108